Waarnemingen

Advertentie
Mijn weer
Antwerpen, België (6450): temperatuur & dauwpunt: 12.02.2018 21:00:00 - 18.02.2018 21:00:00 (CET)Antwerpen, België (6450): windsnelheid & windstoten: 12.02.2018 21:00:00 - 18.02.2018 21:00:00 (CET)Antwerpen, België (6450): windrichting: 12.02.2018 21:00:00 - 18.02.2018 21:00:00 (CET)Antwerpen, België (6450): luchtdruk: 12.02.2018 21:00:00 - 18.02.2018 21:00:00 (CET)Antwerpen, België (6450): zicht: 12.02.2018 21:00:00 - 18.02.2018 21:00:00 (CET)
Datum & Tijd tt [°C] td [°C] ff [km/u] ff [kn] fx [km/u] fx [kn] dd ppp [hPa] vv [km]
18.02.2018 21:00:00 0,1 -2,2 9 5 11 6 ZZO 1024,1 10
18.02.2018 20:00:00 0,5 -1,6 5 3 11 6 ZO 1024,3 10
18.02.2018 19:00:00 2,0 -1,9 8 4 - - ZO 1024,3 10
18.02.2018 18:00:00 6,1 -0,7 9 5 14 8 ZZO 1024,2 10
18.02.2018 17:00:00 7,3 1,1 5 3 14 8 ZO 1024,5 10
18.02.2018 16:00:00 6,9 2,1 11 6 - - ZO 1024,7 10
18.02.2018 15:00:00 7,8 1,3 11 6 18 10 ZZW 1025,0 10
18.02.2018 14:00:00 6,8 1,7 11 6 18 10 ZZO 1025,4 10
18.02.2018 13:00:00 5,7 1,4 13 7 - - ZZO 1026,1 10
18.02.2018 12:00:00 4,8 1,0 13 7 18 10 ZZO 1026,4 10
18.02.2018 11:00:00 3,8 0,6 8 4 11 6 ZO 1026,0 10
18.02.2018 10:00:00 0,4 -0,7 4 2 - - ZO 1026,1 5
18.02.2018 09:00:00 -2,6 -3,6 4 2 7 4 ZO 1025,7 4,0
18.02.2018 08:00:00 -4,7 -5,4 4 2 7 4 ZO 1025,8 3,0
18.02.2018 07:00:00 -3,6 -5,1 5 3 - - ZO 1025,6 2,0
18.02.2018 06:00:00 -4,1 -5,7 5 3 7 4 O 1025,8 2,6
18.02.2018 05:00:00 -4,0 -4,4 2 1 4 2 OZO 1025,7 2,1
18.02.2018 04:00:00 -4,2 -4,8 4 2 - - OZO 1025,5 2,2
18.02.2018 03:00:00 -4,5 -4,9 4 2 4 2 ZO 1025,8 3,1
18.02.2018 02:00:00 -3,6 -4,4 2 1 4 2 O 1025,9 1,3
18.02.2018 01:00:00 -3,1 -3,9 2 1 - - O 1025,9 2,3
18.02.2018 00:00:00 -2,0 -3,4 4 2 4 2 O 1025,9 5
17.02.2018 23:00:00 -2,5 -4,2 2 1 7 4 - 1025,6 10
17.02.2018 22:00:00 -1,9 -3,5 2 1 - - OZO 1025,3 10
17.02.2018 21:00:00 -1,7 -3,7 4 2 7 4 O 1024,9 10
17.02.2018 20:00:00 1,1 -3,1 4 2 7 4 - 1024,8 10
17.02.2018 19:00:00 3,6 -3,4 8 4 - - OZO 1024,1 10
17.02.2018 18:00:00 5,0 -3,4 9 5 14 8 ONO 1023,4 10
17.02.2018 17:00:00 7,2 -3,6 9 5 18 10 ONO 1023,0 10
17.02.2018 16:00:00 7,5 -4,1 11 6 - - ONO 1022,6 10
17.02.2018 15:00:00 7,3 -1,8 11 6 14 8 NO 1022,4 10
17.02.2018 14:00:00 5,8 -1,0 9 5 14 8 O 1022,4 10
17.02.2018 13:00:00 5,3 0,0 9 5 - - O 1022,9 10
17.02.2018 12:00:00 4,3 -0,4 9 5 14 8 O 1022,9 10
17.02.2018 11:00:00 2,6 -0,5 9 5 14 8 O 1022,5 10
17.02.2018 10:00:00 2,0 -1,1 5 3 - - ONO 1022,4 10
17.02.2018 09:00:00 1,0 -1,2 9 5 11 6 O 1022,1 10
17.02.2018 08:00:00 0,4 -1,9 5 3 14 8 O 1022,0 10
17.02.2018 07:00:00 0,7 -1,7 9 5 - - ONO 1022,1 10
17.02.2018 06:00:00 0,4 -2,1 5 3 7 4 ONO 1022,9 10
17.02.2018 05:00:00 -0,3 -2,1 8 4 7 4 NO 1023,3 10
17.02.2018 04:00:00 -0,5 -2,4 4 2 - - ONO 1023,6 10
17.02.2018 03:00:00 -1,3 -2,7 2 1 4 2 OZO 1024,6 10
17.02.2018 02:00:00 -0,8 -2,6 4 2 4 2 ZO 1024,5 10
17.02.2018 01:00:00 -1,0 -2,5 4 2 - - O 1025,0 7
17.02.2018 00:00:00 -1,1 -2,3 2 1 7 4 - 1025,9 9
16.02.2018 23:00:00 0,2 -2,3 5 3 7 4 O 1026,1 10
16.02.2018 22:00:00 -0,9 -2,5 4 2 - - - 1026,3 10
16.02.2018 21:00:00 -0,5 -2,3 4 2 7 4 ZZO 1026,6 10
16.02.2018 20:00:00 1,2 -2,2 2 1 4 2 - 1026,8 10
16.02.2018 19:00:00 3,1 -2,1 4 2 - - O 1026,8 10
16.02.2018 18:00:00 7,3 -2,3 2 1 11 6 - 1026,7 10
16.02.2018 17:00:00 8,1 -1,4 8 4 22 12 W 1026,9 10
16.02.2018 16:00:00 8,4 -1,2 9 5 - - WZW 1026,9 10
16.02.2018 15:00:00 8,3 -1,0 11 6 25 14 WZW 1027,0 10
16.02.2018 14:00:00 8,2 -0,2 13 7 25 14 W 1027,3 10
16.02.2018 13:00:00 7,5 0,8 15 8 - - W 1027,5 10
16.02.2018 12:00:00 7,1 2,6 13 7 22 12 W 1027,3 10
16.02.2018 11:00:00 5,5 1,8 11 6 18 10 W 1026,8 10
16.02.2018 10:00:00 3,8 1,2 11 6 - - ZW 1026,1 10
16.02.2018 09:00:00 2,5 0,8 11 6 14 8 WZW 1025,3 10
16.02.2018 08:00:00 2,1 0,4 8 4 14 8 ZW 1024,4 10
16.02.2018 07:00:00 2,3 0,8 9 5 - - ZW 1023,9 10
16.02.2018 06:00:00 2,9 0,8 9 5 18 10 WZW 1023,1 10
16.02.2018 05:00:00 2,9 0,7 13 7 14 8 ZW 1022,2 10
16.02.2018 04:00:00 3,3 0,9 9 5 - - ZW 1022,0 10
16.02.2018 03:00:00 3,4 1,5 9 5 14 8 W 1021,4 10
16.02.2018 02:00:00 3,4 2,2 8 4 11 6 ZW 1020,7 10
16.02.2018 01:00:00 4,2 2,4 9 5 - - W 1020,0 10
16.02.2018 00:00:00 4,9 2,7 15 8 22 12 W 1019,4 10
15.02.2018 23:00:00 5,0 2,7 9 5 14 8 ZW 1018,5 10
15.02.2018 22:00:00 5,1 2,2 11 6 - - WZW 1017,8 10
15.02.2018 21:00:00 6,2 2,6 9 5 14 8 W 1017,4 10
15.02.2018 20:00:00 6,6 3,5 9 5 14 8 W 1016,7 10
15.02.2018 19:00:00 7,3 3,2 11 6 - - W 1015,6 30
15.02.2018 18:00:00 8,3 4,5 13 7 29 16 WNW 1014,5 10
15.02.2018 17:00:00 9,4 5,8 15 8 29 16 WNW 1013,6 10
15.02.2018 16:00:00 8,9 7,7 15 8 - - W 1012,6 8
15.02.2018 15:00:00 10,2 8,1 11 6 29 16 W 1011,7 9
15.02.2018 14:00:00 9,2 7,4 15 8 25 14 WZW 1011,1 9
15.02.2018 13:00:00 7,8 6,7 16 9 - - ZW 1010,9 7
15.02.2018 12:00:00 6,9 6,1 16 9 32 18 ZW 1010,2 4,5
15.02.2018 11:00:00 6,2 5,1 18 10 29 16 ZZW 1009,5 9
15.02.2018 10:00:00 5,3 4,4 16 9 - - ZZW 1009,0 8
15.02.2018 09:00:00 5,0 3,0 13 7 - - Z - 10
15.02.2018 08:00:00 3,9 2,9 11 6 22 12 Z 1008,0 8
15.02.2018 07:00:00 3,5 2,6 13 7 - - Z 1007,8 4,0
15.02.2018 06:00:00 2,9 2,0 16 9 29 16 ZZO 1007,7 4,4
15.02.2018 05:00:00 2,7 1,7 18 10 32 18 ZZO 1008,0 4,1
15.02.2018 04:00:00 2,6 1,4 22 12 - - ZZO 1008,1 6
15.02.2018 03:00:00 2,8 0,9 21 11 36 19 ZZO 1008,7 10
15.02.2018 02:00:00 2,8 0,7 21 11 36 19 ZZO 1009,4 6
15.02.2018 01:00:00 3,5 0,3 18 10 - - ZZO 1010,0 10
15.02.2018 00:00:00 4,5 -0,8 22 12 43 23 ZZO 1010,2 10
14.02.2018 23:00:00 4,7 -1,9 24 13 43 23 ZZO 1010,8 10
14.02.2018 22:00:00 4,1 -2,3 26 14 - - ZZO 1011,1 10
14.02.2018 21:00:00 4,3 -2,3 22 12 36 19 ZZO 1012,0 10
14.02.2018 20:00:00 4,4 -2,1 21 11 32 18 ZZO 1012,5 10
14.02.2018 19:00:00 4,4 -2,0 22 12 - - ZZO 1013,0 10
14.02.2018 18:00:00 4,8 -2,4 24 13 40 21 ZZO 1013,2 10
14.02.2018 17:00:00 6,0 -3,0 24 13 - - Z - 10
14.02.2018 16:00:00 5,9 -2,8 24 13 - - Z 1013,2 10
14.02.2018 15:00:00 6,3 -2,8 26 14 40 21 ZZO 1013,2 10
14.02.2018 14:00:00 6,1 -3,1 21 11 40 21 Z 1013,8 10
14.02.2018 13:00:00 5,5 -3,4 24 13 - - Z 1013,9 10
14.02.2018 12:00:00 4,2 -3,9 22 12 40 21 Z 1014,1 10
14.02.2018 11:00:00 2,6 -4,2 18 10 32 18 ZZO 1014,1 10
14.02.2018 10:00:00 0,3 -5,0 18 10 - - ZO 1014,1 10
14.02.2018 09:00:00 -2,4 -5,4 13 7 18 10 ZO 1013,9 10
14.02.2018 08:00:00 -5,6 -7,9 9 5 11 6 ZO 1013,7 10
14.02.2018 07:00:00 -4,9 -7,4 8 4 - - ZO 1013,1 10
14.02.2018 06:00:00 -4,4 -7,1 9 5 14 8 OZO 1012,8 10
14.02.2018 05:00:00 -4,3 -6,9 9 5 11 6 OZO 1012,4 10
14.02.2018 04:00:00 -4,0 -6,6 8 4 - - ZO 1012,2 10
14.02.2018 03:00:00 -3,6 -6,5 9 5 14 8 ZO 1011,6 10
14.02.2018 02:00:00 -2,5 -5,9 9 5 14 8 OZO 1011,3 10
14.02.2018 01:00:00 -3,2 -6,1 11 6 - - OZO 1011,0 10
14.02.2018 00:00:00 -2,3 -5,5 13 7 18 10 OZO 1010,7 10
13.02.2018 23:00:00 -1,3 -4,8 11 6 18 10 ZO 1010,5 10
13.02.2018 22:00:00 -0,5 -4,3 13 7 - - OZO 1010,2 10
13.02.2018 21:00:00 -1,4 -5,0 13 7 18 10 OZO 1009,8 10
13.02.2018 20:00:00 0,7 -4,4 13 7 18 10 ZO 1009,4 10
13.02.2018 19:00:00 0,1 -4,8 11 6 - - ZO 1009,0 10
13.02.2018 18:00:00 4,6 -5,7 16 9 36 19 ZZO 1008,5 10
13.02.2018 17:00:00 6,1 -6,9 21 11 40 21 ZZO 1008,0 10
13.02.2018 16:00:00 6,5 -5,7 26 14 - - ZZO 1008,0 10
13.02.2018 15:00:00 6,5 -5,6 24 13 54 29 Z 1008,3 10
13.02.2018 14:00:00 6,9 -4,5 31 17 47 25 Z 1008,9 10
13.02.2018 13:00:00 5,7 -3,8 26 14 - - Z 1009,7 10
13.02.2018 12:00:00 5,0 -2,7 22 12 40 21 Z 1010,4 10
13.02.2018 11:00:00 3,4 -2,5 22 12 29 16 ZZO 1010,8 10
13.02.2018 10:00:00 1,8 -2,1 18 10 - - ZZO 1011,2 10
13.02.2018 09:00:00 0,4 -2,4 16 9 25 14 ZZO 1011,7 10
13.02.2018 08:00:00 -0,6 -2,8 13 7 18 10 ZZO 1011,9 10
13.02.2018 07:00:00 -0,7 -2,9 9 5 - - Z 1012,5 10
13.02.2018 06:00:00 -0,8 -2,8 9 5 14 8 Z 1013,0 10
13.02.2018 05:00:00 -1,0 -2,8 9 5 14 8 ZZO 1013,4 10
13.02.2018 04:00:00 0,1 -2,4 11 6 - - ZZO 1014,0 10
13.02.2018 03:00:00 0,5 -2,2 11 6 14 8 Z 1014,5 10
13.02.2018 02:00:00 0,9 -2,2 11 6 18 10 ZZW 1015,2 10
13.02.2018 01:00:00 1,3 -2,4 11 6 - - ZZW 1015,4 10
13.02.2018 00:00:00 1,5 -3,0 11 6 14 8 ZZW 1015,7 10
12.02.2018 23:00:00 2,0 -3,1 9 5 14 8 ZZW 1016,0 10
12.02.2018 22:00:00 2,4 -3,2 9 5 - - ZZW 1016,2 10
12.02.2018 21:00:00 2,7 -3,2 9 5 14 8 ZZW 1016,1 10

tt = temperatuur
td = dauwpunt
ff = windsnelheid
fx = windstoten
dd = windrichting
ppp = luchtdruk
vv = zicht

Weerstations in de omgeving